Weather History for ENQA - February, 2014

Change the Weather History Date:

Tuesday, February 18, 2014

  Actual Average Record
Temperature  
Mean Temperature 42 °F -  
Max Temperature 46 °F - - ()
Min Temperature 37 °F - - ()
Degree Days  
Heating Degree Days 24    
Moisture  
Dew Point 29 °F    
Average Humidity 65    
Maximum Humidity 87    
Minimum Humidity 50    
Precipitation  
Precipitation 0.00 in - - ()
Sea Level Pressure  
Sea Level Pressure 29.75 in    
Wind  
Wind Speed 12 mph ()    
Max Wind Speed 20 mph    
Max Gust Speed -    
Visibility 6.2 miles    
Events      
T = Trace of Precipitation, MM = Missing Value Source: Averaged Metar Reports

Daily Weather History Graph

Daily Weather History Graph

Search for Another Location

Airport or City:

Trip Planner

Search our weather history database for the weather conditions in past years. The results will help you decide how hot, cold, wet, or windy it might be!

Date:

Astronomy

Feb. 18, 2014 Rise Set
Actual Time 8:17 AM CET 5:41 PM CET
Civil Twilight 7:33 AM CET 6:26 PM CET
Nautical Twilight 6:43 AM CET 7:15 PM CET
Astronomical Twilight 5:54 AM CET 8:04 PM CET
Moon 10:30 PM CET (2/18) 8:40 AM CET (2/18)
Length of Visible Light 10h 52m
Length of Day
9h 24m
Waning Gibbous, 89% of the Moon is Illuminated
Feb 18
Waning Gibbous
Feb 22
Last Quarter
Mar 1
New
Mar 8
First Quarter
Mar 16
Full

Hourly Weather History & Observations

Time (CET) Temp. Windchill Dew Point Humidity Pressure Visibility Wind Dir Wind Speed Gust Speed Precip Events Conditions
12:20 AM 39.2 °F 29.6 °F 30.2 °F 70% 29.77 in 6.2 mi WSW 19.6 mph - N/A   Overcast
12:50 AM 39.2 °F 30.2 °F 28.4 °F 65% 29.77 in 6.2 mi WSW 17.3 mph - N/A   Scattered Clouds
1:20 AM 37.4 °F 27.5 °F 30.2 °F 75% 29.77 in 6.2 mi SW 18.4 mph - N/A   Unknown
1:50 AM 37.4 °F 27.8 °F 30.2 °F 75% 29.77 in 6.2 mi SW 17.3 mph - N/A   Unknown
2:20 AM 37.4 °F 28.2 °F 32.0 °F 81% 29.77 in 6.2 mi SW 16.1 mph - N/A   Scattered Clouds
2:50 AM 39.2 °F 29.8 °F 23.0 °F 52% 29.77 in 6.2 mi West 18.4 mph - N/A   Scattered Clouds
3:20 AM 39.2 °F 30.2 °F 23.0 °F 52% 29.77 in 6.2 mi West 17.3 mph - N/A   Unknown
3:50 AM 39.2 °F 30.2 °F 23.0 °F 52% 29.77 in 6.2 mi West 17.3 mph - N/A   Unknown
4:20 AM 39.2 °F 30.2 °F 24.8 °F 56% 29.77 in 6.2 mi West 17.3 mph - N/A   Scattered Clouds
4:50 AM 39.2 °F 30.2 °F 24.8 °F 56% 29.77 in 6.2 mi WSW 17.3 mph - N/A   Mostly Cloudy
5:20 AM 39.2 °F 30.5 °F 24.8 °F 56% 29.77 in 6.2 mi WSW 16.1 mph - N/A   Mostly Cloudy
5:50 AM 39.2 °F 30.5 °F 24.8 °F 56% 29.77 in 6.2 mi WSW 16.1 mph - N/A   Scattered Clouds
6:20 AM 39.2 °F 30.8 °F 24.8 °F 56% 29.77 in 6.2 mi WSW 15.0 mph - N/A   Partly Cloudy
6:50 AM 39.2 °F 31.2 °F 26.6 °F 61% 29.77 in 6.2 mi WSW 13.8 mph - N/A   Mostly Cloudy
7:20 AM 39.2 °F 31.6 °F 26.6 °F 61% 29.77 in 6.2 mi WSW 12.7 mph - N/A   Mostly Cloudy
7:50 AM 39.2 °F 33.0 °F 28.4 °F 65% 29.77 in 6.2 mi WSW 9.2 mph - N/A   Mostly Cloudy
8:20 AM 39.2 °F 35.0 °F 28.4 °F 65% 29.77 in 6.2 mi SSW 5.8 mph - N/A   Mostly Cloudy
8:50 AM 39.2 °F 33.0 °F 28.4 °F 65% 29.77 in 6.2 mi SSW 9.2 mph - N/A   Mostly Cloudy
9:20 AM 41.0 °F 34.7 °F 28.4 °F 61% 29.77 in 6.2 mi SSW 10.4 mph - N/A   Scattered Clouds
9:50 AM 39.2 °F 32.0 °F 28.4 °F 65% 29.77 in 6.2 mi SSW 11.5 mph - N/A   Overcast
10:20 AM 41.0 °F 34.7 °F 26.6 °F 57% 29.77 in 6.2 mi SSW 10.4 mph - N/A   Mostly Cloudy
10:50 AM 39.2 °F 32.5 °F 28.4 °F 65% 29.77 in 6.2 mi SSW 10.4 mph - N/A   Overcast
11:20 AM 41.0 °F 35.8 °F 28.4 °F 61% 29.77 in 6.2 mi SSW 8.1 mph - N/A   Overcast
11:50 AM 41.0 °F 37.1 °F 28.4 °F 61% 29.77 in 6.2 mi SSW 5.8 mph - N/A   Mostly Cloudy
12:20 PM 44.6 °F 42.2 °F 28.4 °F 53% 29.77 in 6.2 mi SW 4.6 mph - N/A   Overcast
12:50 PM 44.6 °F 42.2 °F 28.4 °F 53% 29.77 in 6.2 mi SSW 4.6 mph - N/A   Scattered Clouds
1:20 PM 42.8 °F - 28.4 °F 57% 29.77 in 6.2 mi SSW 2.3 mph - N/A   Scattered Clouds
1:50 PM 46.4 °F - 28.4 °F 50% 29.77 in 6.2 mi Variable 2.3 mph - N/A   Mostly Cloudy
2:20 PM 44.6 °F - 28.4 °F 53% 29.77 in 6.2 mi Variable 1.2 mph - N/A   Unknown
2:50 PM 44.6 °F - 30.2 °F 57% 29.77 in 6.2 mi Calm Calm - N/A   Unknown
3:20 PM 42.8 °F - 28.4 °F 57% 29.74 in 6.2 mi Calm Calm - N/A   Unknown
3:50 PM 41.0 °F - 28.4 °F 61% 29.74 in 6.2 mi Variable 2.3 mph - N/A   Unknown
4:20 PM 39.2 °F 37.0 °F 30.2 °F 70% 29.74 in 6.2 mi NE 3.5 mph - N/A   Unknown
4:50 PM 39.2 °F 35.9 °F 30.2 °F 70% 29.74 in 6.2 mi NE 4.6 mph - N/A   Unknown
5:20 PM 39.2 °F 35.0 °F 30.2 °F 70% 29.74 in 6.2 mi NE 5.8 mph - N/A   Unknown
5:50 PM 39.2 °F 34.2 °F 30.2 °F 70% 29.74 in 6.2 mi ENE 6.9 mph - N/A   Unknown
6:20 PM 39.2 °F 33.6 °F 30.2 °F 70% 29.74 in 6.2 mi NNE 8.1 mph - N/A   Unknown
6:50 PM 39.2 °F 33.0 °F 32.0 °F 75% 29.74 in 6.2 mi NE 9.2 mph - N/A   Unknown
7:20 PM 39.2 °F 32.5 °F 30.2 °F 70% 29.71 in 6.2 mi NE 10.4 mph - N/A   Unknown
7:50 PM 39.2 °F 32.5 °F 30.2 °F 70% 29.71 in 6.2 mi NNE 10.4 mph - N/A   Unknown
8:20 PM 39.2 °F 32.5 °F 32.0 °F 75% 29.71 in 6.2 mi NNE 10.4 mph - N/A   Unknown
8:50 PM 37.4 °F 29.8 °F 32.0 °F 81% 29.71 in 6.2 mi NNE 11.5 mph - N/A   Unknown
9:20 PM 37.4 °F 30.3 °F 32.0 °F 81% 29.71 in 6.2 mi NE 10.4 mph - N/A   Unknown
9:50 PM 37.4 °F 29.3 °F 33.8 °F 87% 29.71 in 6.2 mi NE 12.7 mph - N/A   Partly Cloudy
10:20 PM 37.4 °F 29.3 °F 32.0 °F 81% 29.71 in 6.2 mi NE 12.7 mph - N/A   Partly Cloudy
10:50 PM 39.2 °F 31.6 °F 32.0 °F 75% 29.71 in 6.2 mi NNE 12.7 mph - N/A   Unknown
11:20 PM 37.4 °F 28.9 °F 32.0 °F 81% 29.71 in 6.2 mi NNE 13.8 mph - N/A   Unknown
11:50 PM 37.4 °F 27.8 °F 30.2 °F 75% 29.71 in 6.2 mi NNE 17.3 mph - N/A   Unknown